Location: Maccacari
(45.1333°N, 11.1333°E)
Time: 01:28:55
(UTC+00:00)

Tiros 1 despin weight - Pass Details

Date: 27 January 2021
Orbit: 593 x 642 km, 48.2° (Epoch: 07 March)

Event Time Altitude Azimuth Distance (km) Brightness Sun altitude
Rises 11:00:10 0° 194° (SSW) 2,905 ? 26.2°
Reaches altitude 10° 11:03:18 10° 172° (S) 1,993 ? 26.3°
Maximum altitude 11:05:59 15° 136° (SE) 1,655 ? 26.3°
Drops below altitude 10° 11:08:39 10° 99° (E) 1,981 ? 26.4°
Sets 11:11:45 0° 77° (ENE) 2,879 ? 26.4°
